TimeCST,TemperatureF,Dew PointF,Humidity,Sea Level PressureIn,VisibilityMPH,Wind Direction,Wind SpeedMPH,Gust SpeedMPH,PrecipitationIn,Events,Conditions,WindDirDegrees,DateUTC
12:12 AM,18.3,4.3,54,30.17,10.0,West,4.6,-,N/A,,Clear,280,2013-02-15 06:12:00
12:32 AM,17.6,5.0,58,30.17,10.0,WNW,5.8,-,N/A,,Clear,300,2013-02-15 06:32:00
12:52 AM,16.7,5.9,63,30.17,10.0,WNW,5.8,-,N/A,,Clear,290,2013-02-15 06:52:00
1:12 AM,15.8,5.9,65,30.17,10.0,West,5.8,-,N/A,,Scattered Clouds,280,2013-02-15 07:12:00
1:32 AM,15.8,5.9,65,30.17,10.0,WNW,5.8,-,N/A,,Mostly Cloudy,290,2013-02-15 07:32:00
1:52 AM,15.3,4.8,63,30.17,10.0,WNW,8.1,-,N/A,,Mostly Cloudy,290,2013-02-15 07:52:00
2:12 AM,14.5,3.9,63,30.17,10.0,WNW,5.8,-,N/A,,Scattered Clouds,290,2013-02-15 08:12:00
2:32 AM,13.8,2.8,62,30.18,10.0,WNW,6.9,-,N/A,,Scattered Clouds,290,2013-02-15 08:32:00
2:52 AM,13.1,2.3,62,30.19,10.0,WNW,6.9,-,N/A,,Mostly Cloudy,290,2013-02-15 08:52:00
3:12 AM,13.1,2.3,62,30.19,10.0,WNW,5.8,-,N/A,,Overcast,300,2013-02-15 09:12:00
3:32 AM,13.1,2.3,62,30.19,10.0,NW,9.2,-,N/A,,Overcast,310,2013-02-15 09:32:00
3:52 AM,12.6,2.3,64,30.19,10.0,NW,10.4,-,N/A,,Scattered Clouds,310,2013-02-15 09:52:00
4:12 AM,12.2,2.7,66,30.20,10.0,NW,10.4,-,N/A,,Mostly Cloudy,310,2013-02-15 10:12:00
4:32 AM,12.0,3.0,67,30.20,10.0,NW,8.1,-,N/A,,Mostly Cloudy,310,2013-02-15 10:32:00
4:52 AM,12.0,3.2,68,30.20,10.0,WNW,8.1,-,N/A,,Overcast,300,2013-02-15 10:52:00
5:12 AM,11.7,3.0,68,30.22,10.0,NW,6.9,-,N/A,,Mostly Cloudy,310,2013-02-15 11:12:00
5:32 AM,10.9,2.5,69,30.22,10.0,WNW,8.1,-,N/A,,Scattered Clouds,300,2013-02-15 11:32:00
6:12 AM,10.4,2.3,70,30.22,10.0,NW,10.4,-,N/A,,Clear,310,2013-02-15 12:12:00
6:32 AM,10.2,2.3,70,30.23,10.0,NW,10.4,-,N/A,,Clear,310,2013-02-15 12:32:00
6:52 AM,9.9,2.3,71,30.24,10.0,NW,9.2,-,N/A,,Clear,310,2013-02-15 12:52:00
7:12 AM,9.3,2.1,73,30.24,10.0,NW,10.4,-,N/A,,Clear,320,2013-02-15 13:12:00
7:32 AM,9.3,2.3,73,30.25,10.0,NW,9.2,-,N/A,,Clear,320,2013-02-15 13:32:00
7:52 AM,9.3,2.3,73,30.26,10.0,NW,9.2,-,N/A,,Clear,320,2013-02-15 13:52:00
8:12 AM,9.5,2.3,73,30.27,10.0,NW,8.1,-,N/A,,Clear,320,2013-02-15 14:12:00
8:32 AM,9.5,2.1,72,30.27,10.0,NW,10.4,-,N/A,,Clear,320,2013-02-15 14:32:00
8:52 AM,10.0,2.3,71,30.28,10.0,NNW,10.4,-,N/A,,Clear,340,2013-02-15 14:52:00
9:12 AM,10.9,1.8,67,30.28,10.0,North,5.8,-,N/A,,Clear,350,2013-02-15 15:12:00
9:32 AM,11.1,1.2,64,30.29,10.0,North,10.4,-,N/A,,Clear,360,2013-02-15 15:32:00
9:52 AM,11.8,1.2,62,30.29,10.0,NNW,6.9,-,N/A,,Clear,340,2013-02-15 15:52:00
10:12 AM,12.0,1.4,62,30.29,10.0,North,8.1,-,N/A,,Clear,350,2013-02-15 16:12:00
10:32 AM,12.9,2.1,62,30.28,10.0,NW,12.7,-,N/A,,Clear,320,2013-02-15 16:32:00
11:12 AM,14.0,2.3,60,30.29,10.0,NW,10.4,-,N/A,,Clear,320,2013-02-15 17:12:00
11:52 AM,15.3,1.9,56,30.29,10.0,North,10.4,18.4,N/A,,Clear,350,2013-02-15 17:52:00
12:12 PM,15.4,1.9,55,30.28,10.0,NNW,13.8,-,N/A,,Clear,330,2013-02-15 18:12:00
12:32 PM,15.8,1.9,54,30.27,10.0,NNW,10.4,-,N/A,,Clear,330,2013-02-15 18:32:00
12:52 PM,15.8,1.8,54,30.27,10.0,NW,10.4,16.1,N/A,,Clear,320,2013-02-15 18:52:00
1:12 PM,16.5,1.8,52,30.27,10.0,NNW,11.5,17.3,N/A,,Clear,330,2013-02-15 19:12:00
1:32 PM,17.2,2.3,52,30.27,10.0,WNW,11.5,16.1,N/A,,Clear,300,2013-02-15 19:32:00
1:52 PM,17.6,2.3,51,30.26,10.0,NW,9.2,-,N/A,,Clear,320,2013-02-15 19:52:00
2:12 PM,18.0,2.3,50,30.26,10.0,WNW,10.4,-,N/A,,Clear,300,2013-02-15 20:12:00
2:32 PM,18.1,2.5,51,30.26,10.0,WNW,10.4,16.1,N/A,,Clear,300,2013-02-15 20:32:00
2:52 PM,18.3,2.1,49,30.27,10.0,NW,15.0,19.6,N/A,,Clear,320,2013-02-15 20:52:00
3:12 PM,18.3,2.3,50,30.27,10.0,NW,12.7,17.3,N/A,,Clear,320,2013-02-15 21:12:00
3:32 PM,18.3,3.0,51,30.27,10.0,WNW,11.5,-,N/A,,Clear,300,2013-02-15 21:32:00
3:52 PM,18.5,2.5,50,30.27,10.0,NW,10.4,-,N/A,,Clear,310,2013-02-15 21:52:00
4:12 PM,18.5,2.8,51,30.27,10.0,NW,10.4,-,N/A,,Clear,310,2013-02-15 22:12:00
4:32 PM,18.5,2.3,49,30.27,10.0,WNW,12.7,18.4,N/A,,Clear,300,2013-02-15 22:32:00
4:52 PM,18.3,1.4,48,30.28,10.0,NW,15.0,18.4,N/A,,Clear,320,2013-02-15 22:52:00
5:12 PM,18.0,2.3,50,30.28,10.0,NW,8.1,-,N/A,,Clear,310,2013-02-15 23:12:00
5:32 PM,17.6,2.3,51,30.28,10.0,NW,8.1,-,N/A,,Clear,310,2013-02-15 23:32:00
5:52 PM,17.2,2.3,52,30.28,10.0,NW,9.2,-,N/A,,Clear,310,2013-02-15 23:52:00
6:12 PM,17.1,2.3,52,30.28,10.0,WNW,4.6,-,N/A,,Clear,300,2013-02-16 00:12:00
6:32 PM,16.0,2.1,54,30.28,10.0,West,3.5,-,N/A,,Clear,270,2013-02-16 00:32:00
6:52 PM,14.9,2.1,57,30.28,10.0,West,4.6,-,N/A,,Clear,280,2013-02-16 00:52:00
7:12 PM,15.6,2.3,56,30.28,10.0,West,8.1,-,N/A,,Clear,280,2013-02-16 01:12:00
7:32 PM,14.9,3.2,60,30.27,10.0,West,8.1,-,N/A,,Clear,270,2013-02-16 01:32:00
7:52 PM,14.5,3.4,61,30.27,10.0,West,6.9,-,N/A,,Clear,270,2013-02-16 01:52:00
8:12 PM,14.0,3.2,62,30.27,10.0,West,6.9,-,N/A,,Clear,270,2013-02-16 02:12:00
8:32 PM,13.5,3.0,63,30.27,10.0,West,5.8,-,N/A,,Clear,260,2013-02-16 02:32:00
8:52 PM,12.6,2.7,65,30.27,10.0,WSW,5.8,-,N/A,,Clear,250,2013-02-16 02:52:00
9:12 PM,12.0,3.0,67,30.26,10.0,West,6.9,-,N/A,,Clear,260,2013-02-16 03:12:00
9:32 PM,11.3,2.8,69,30.26,10.0,West,5.8,-,N/A,,Clear,270,2013-02-16 03:32:00
9:52 PM,11.3,2.3,67,30.26,10.0,West,5.8,-,N/A,,Clear,270,2013-02-16 03:52:00
10:12 PM,10.9,1.8,67,30.26,10.0,West,4.6,-,N/A,,Clear,270,2013-02-16 04:12:00
10:32 PM,10.2,1.4,68,30.26,10.0,West,4.6,-,N/A,,Clear,260,2013-02-16 04:32:00
10:52 PM,9.7,1.2,69,30.26,10.0,West,3.5,-,N/A,,Clear,270,2013-02-16 04:52:00
11:12 PM,9.5,1.2,69,30.26,10.0,Calm,Calm,-,N/A,,Clear,0,2013-02-16 05:12:00
11:32 PM,9.5,1.4,70,30.25,10.0,WNW,4.6,-,N/A,,Clear,290,2013-02-16 05:32:00
11:52 PM,9.1,1.2,70,30.25,10.0,WNW,4.6,-,N/A,,Clear,290,2013-02-16 05:52:00